Weather in La Serena

Chile     29°54′23″S   71°14′46″W
temp.,
°C
wind,
m/s
gust,
m/s
humid.,
%
clouds,
%
prec.,
mm/h
press.,
hPa
HPBL,
m
17 may, mon
mon1723:00+15wnw117963 0.0 101514
02:00+14nw118356 0.0 101511
05:00+13nnw118892 0.0 101411
08:00+14nnw11865 0.0 101511
11:00+18nw326717 0.0 1016274
14:00+18wnw3266100 0.0 1015370
17:00+16wnw21725 0.0 1014243
20:00+14wnw118796 0.0 101593
18 may, tue
tue1823:00+13w119091 0.0 101559
02:00+13nnw1192100 0.0 101414
05:00+12n119545 0.0 101416
08:00+12nne119616 0.0 101527
11:00+17nw217296 0.0 1015288
14:00+16wnw3378100 0.0 1016620
17:00+15nw2280100 0.0 1015504
20:00+14nw22873 0.0 1016149
19 may, wed
wed1923:00+14nw258997 0.0 1017439
02:00+14nnw2486100 0.4 1018466
05:00+14nw1490100 0.5 1018420
08:00+14wnw1287100 0.8 1019350
11:00+14wnw1179100 0.1 1020415
14:00+16w2169100 0.1 1018752
17:00+16w217035 0.0 1017448
20:00+15sw0075100 0.0 101738
20 may, thu
thu2023:00+14sw1180100 0.0 101618
02:00+13nne1183100 0.0 101611
05:00+12ne1185100 0.0 101511
08:00+13nw0082100 0.0 101710
11:00+16w2164100 0.0 1018448
14:00+18wnw32570 0.0 1017662
17:00+16w32681 0.0 1017390
20:00+14nnw118423 0.0 1018183
21 may, fri
fri2123:00+13nnw118643 0.0 1019149
02:00+13n118458 0.0 1019216
05:00+13nw008428 0.0 1018104
08:00+12w11860 0.0 101915
11:00+16w22680 0.0 1019405
14:00+18wnw22540 0.0 1017603
17:00+17nw225884 0.0 1016262
20:00+14n227297 0.0 101793